Date String (YYYY-MM-DD hh:mm:ss) UTC,Instrument flags,Ambient pressure (hPa),Sample flow (lpm),Bypass flow (lpm),Sample temperature (°C),Ambient temperature (°C),ASC tube jacket temperature (°C),LED temperature (°C),Box temperature (°C),Sample RH (%),Span deviation,Mass concentration (μg/m³),Mass concentration (μg/m³),Mass concentration (μg/m³)
DateTimeUTC,F1_M11,P_M11,Q1_M11,Q2_M11,T1_M11,T2_M11,T3_M11,T4_M11,T5_M11,U1_M11,ZSPAN_M11,X0_M11,X2_M11,X1_M11
2022-05-31 13:00:00,,0825.7,5.01,0.00,24.1,23.2,00.0,33.0,26.1,17.3,0000.0,0002.05,0001.05,0000.68
2022-05-31 13:01:00,,0825.7,4.98,0.00,24.1,23.2,00.0,33.0,26.1,17.3,0000.0,0002.18,0001.09,0000.67
2022-05-31 13:02:00,,0825.7,5.01,0.00,24.1,23.2,00.0,33.0,26.1,17.7,0000.0,0002.16,0001.08,0000.67
2022-05-31 13:03:00,,0825.7,4.99,0.00,24.2,23.2,00.0,33.0,26.1,17.6,0000.0,0002.27,0001.11,0000.66
2022-05-31 13:04:00,,0825.7,5.00,0.00,24.2,23.2,00.0,33.0,26.1,18.5,0000.0,0002.28,0001.10,0000.65
2022-05-31 13:05:00,,0825.7,5.00,0.00,24.2,23.3,00.0,33.0,26.1,20.3,0000.0,0002.29,0001.11,0000.66
2022-05-31 13:06:00,,0825.7,5.00,0.00,24.2,23.3,00.0,33.0,26.1,20.3,0000.0,0002.28,0001.10,0000.67
2022-05-31 13:07:00,,0825.7,5.00,0.00,24.2,23.3,00.0,33.1,26.2,18.7,0000.0,0002.32,0001.12,0000.67
2022-05-31 13:08:00,,0825.7,4.99,0.00,24.2,23.3,00.0,33.1,26.2,18.8,0000.0,0002.36,0001.12,0000.67
2022-05-31 13:09:00,,0825.7,5.01,0.00,24.2,23.3,00.0,33.1,26.2,18.5,0000.0,0002.28,0001.11,0000.67
2022-05-31 13:10:00,,0825.7,5.01,0.00,24.2,23.3,00.0,33.1,26.2,18.4,0000.0,0002.30,0001.13,0000.67
2022-05-31 13:11:00,,0825.7,4.99,0.00,24.2,23.3,00.0,33.1,26.2,18.3,0000.0,0002.32,0001.14,0000.68
2022-05-31 13:12:00,,0825.7,5.00,0.00,24.2,23.3,00.0,33.1,26.2,19.0,0000.0,0002.31,0001.10,0000.68
2022-05-31 13:13:00,,0825.8,5.00,0.00,24.2,23.4,00.0,33.1,26.2,18.5,0000.0,0002.21,0001.07,0000.68
2022-05-31 13:14:00,,0825.8,5.00,0.00,24.3,23.4,00.0,33.1,26.2,18.3,0000.0,0002.08,0001.04,0000.69
2022-05-31 13:15:00,,0825.7,5.00,0.00,24.3,23.4,00.0,33.1,26.3,17.1,0000.0,0001.95,0001.04,0000.70
2022-05-31 13:16:00,,0825.8,5.00,0.00,24.3,23.4,00.0,33.1,26.3,16.7,0000.0,0002.04,0001.04,0000.71
2022-05-31 13:17:00,,0825.8,5.00,0.00,24.3,23.4,00.0,33.1,26.3,18.4,0000.0,0002.01,0001.03,0000.70
2022-05-31 13:18:00,,0825.9,4.99,0.00,24.3,23.4,00.0,33.2,26.3,18.0,0000.0,0002.03,0001.03,0000.71
2022-05-31 13:19:00,,0825.9,5.00,0.00,24.3,23.4,00.0,33.2,26.3,17.4,0000.0,0002.03,0001.04,0000.71
2022-05-31 13:20:00,,0825.9,4.99,0.00,24.3,23.4,00.0,33.2,26.3,17.6,0000.0,0002.00,0001.04,0000.72
2022-05-31 13:21:00,,0825.9,5.00,0.00,24.3,23.4,00.0,33.2,26.3,18.6,0000.0,0002.04,0001.02,0000.72
2022-05-31 13:22:00,,0825.8,5.01,0.00,24.3,23.5,00.0,33.2,26.3,20.2,0000.0,0002.08,0001.03,0000.72
2022-05-31 13:23:00,,0825.8,4.99,0.00,24.3,23.5,00.0,33.2,26.3,20.9,0000.0,0002.05,0001.07,0000.73
2022-05-31 13:24:00,,0825.8,5.01,0.00,24.4,23.5,00.0,33.2,26.3,20.4,0000.0,0002.22,0001.13,0000.74
2022-05-31 13:25:00,,0825.8,4.99,0.00,24.4,23.5,00.0,33.2,26.3,21.0,0000.0,0002.15,0001.11,0000.74
2022-05-31 13:26:00,,0825.8,5.01,0.00,24.4,23.5,00.0,33.2,26.3,20.1,0000.0,0002.15,0001.09,0000.74
2022-05-31 13:27:00,,0825.8,4.99,0.00,24.4,23.5,00.0,33.2,26.4,19.4,0000.0,0002.13,0001.08,0000.73
2022-05-31 13:28:00,,0825.9,5.01,0.00,24.4,23.5,00.0,33.2,26.3,21.0,0000.0,0002.39,0001.11,0000.73
2022-05-31 13:29:00,,0825.9,5.00,0.00,24.4,23.5,00.0,33.2,26.3,21.3,0000.0,0002.60,0001.16,0000.74
2022-05-31 13:30:00,,0825.8,4.99,0.00,24.4,23.5,00.0,33.3,26.4,20.7,0000.0,0002.63,0001.18,0000.75
2022-05-31 13:31:00,,0825.9,5.01,0.00,24.4,23.5,00.0,33.3,26.4,18.9,0000.0,0002.68,0001.19,0000.75
2022-05-31 13:32:00,,0825.9,4.99,0.00,24.4,23.5,00.0,33.3,26.4,18.6,0000.0,0002.81,0001.22,0000.76
2022-05-31 13:33:00,,0825.8,5.00,0.00,24.4,23.6,00.0,33.3,26.4,17.6,0000.0,0002.73,0001.22,0000.77
2022-05-31 13:34:00,,0825.8,4.99,0.00,24.4,23.6,00.0,33.3,26.4,18.0,0000.0,0002.60,0001.18,0000.76
2022-05-31 13:35:00,,0825.8,5.00,0.00,24.4,23.6,00.0,33.3,26.4,18.1,0000.0,0002.50,0001.15,0000.76
2022-05-31 13:36:00,,0825.8,4.99,0.00,24.5,23.6,00.0,33.3,26.4,18.5,0000.0,0002.69,0001.22,0000.76
2022-05-31 13:37:00,,0825.9,5.00,0.00,24.5,23.6,00.0,33.3,26.5,18.0,0000.0,0002.81,0001.28,0000.77
2022-05-31 13:38:00,,0825.9,5.00,0.00,24.5,23.6,00.0,33.3,26.5,17.6,0000.0,0003.03,0001.32,0000.78
2022-05-31 13:39:00,,0825.8,5.01,0.00,24.5,23.6,00.0,33.3,26.5,18.0,0000.0,0004.75,0001.32,0000.78
2022-05-31 13:40:00,,0825.8,4.99,0.00,24.5,23.6,00.0,33.4,26.5,18.3,0000.0,0005.14,0001.29,0000.79
2022-05-31 13:41:00,,0825.8,5.01,0.00,24.5,23.6,00.0,33.4,26.5,18.9,0000.0,0005.54,0001.33,0000.80
2022-05-31 13:42:00,,0825.7,4.99,0.00,24.5,23.6,00.0,33.4,26.5,18.0,0000.0,0005.65,0001.39,0000.82
2022-05-31 13:43:00,,0825.8,5.01,0.00,24.5,23.7,00.0,33.4,26.5,18.2,0000.0,0005.58,0001.45,0000.83
2022-05-31 13:44:00,,0825.8,5.01,0.00,24.5,23.7,00.0,33.4,26.5,18.0,0000.0,0005.74,0001.53,0000.84
2022-05-31 13:45:00,,0825.9,5.01,0.00,24.6,23.7,00.0,33.4,26.6,18.1,0000.0,0006.13,0001.62,0000.86
2022-05-31 13:46:00,,0825.8,5.00,0.00,24.6,23.7,00.0,33.4,26.6,17.8,0000.0,0006.31,0001.68,0000.87
2022-05-31 13:47:00,,0825.9,5.01,0.00,24.6,23.7,00.0,33.4,26.6,18.0,0000.0,0006.32,0001.67,0000.89
2022-05-31 13:48:00,,0825.9,5.00,0.00,24.6,23.7,00.0,33.4,26.6,18.9,0000.0,0006.49,0001.68,0000.90
2022-05-31 13:49:00,,0825.9,5.00,0.00,24.6,23.7,00.0,33.4,26.6,18.3,0000.0,0006.79,0001.72,0000.91
2022-05-31 13:50:00,,0825.8,5.00,0.00,24.6,23.7,00.0,33.5,26.6,17.8,0000.0,0004.77,0001.72,0000.92
2022-05-31 13:51:00,,0825.9,5.01,0.00,24.6,23.8,00.0,33.5,26.6,17.9,0000.0,0004.41,0001.74,0000.92
2022-05-31 13:52:00,,0825.9,4.99,0.00,24.6,23.8,00.0,33.5,26.6,18.4,0000.0,0004.29,0001.74,0000.91
2022-05-31 13:53:00,,0825.9,5.00,0.00,24.6,23.8,00.0,33.5,26.6,18.5,0000.0,0004.36,0001.74,0000.91
2022-05-31 13:54:00,,0826.0,5.01,0.00,24.6,23.8,00.0,33.5,26.6,17.9,0000.0,0004.39,0001.74,0000.91
2022-05-31 13:55:00,,0825.9,5.00,0.00,24.7,23.8,00.0,33.5,26.6,18.0,0000.0,0004.40,0001.70,0000.91
2022-05-31 13:56:00,,0825.8,4.99,0.00,24.7,23.8,00.0,33.5,26.6,18.8,0000.0,0004.25,0001.68,0000.91
2022-05-31 13:57:00,,0825.8,5.01,0.00,24.7,23.8,00.0,33.5,26.7,18.5,0000.0,0004.06,0001.64,0000.91
2022-05-31 13:58:00,,0825.9,4.99,0.00,24.7,23.8,00.0,33.5,26.7,18.4,0000.0,0004.05,0001.65,0000.90
2022-05-31 13:59:00,,0825.9,5.01,0.00,24.7,23.8,00.0,33.5,26.7,18.1,0000.0,0003.97,0001.66,0000.89
